Terug naar catalogus

STARLINK-30866

ActiefCommunicatieVLEO
NORAD 58237·PAYLOAD·🇺🇸 United States

Gelanceerd Nov 8, 2023 vanaf Cape Canaveral Space Force Station

Loading…

Volgende Passages (komende 24 uur)

TLE

VersSource: CelesTrak SupGP

Epoch: Sep 14, 2026, 22:09 UTC

1 58237C 23171H   26257.92340278  .00007918  00000+0  28676-3 0  2579
2 58237  43.0026 296.4619 0001890 273.6523 180.9930 15.27575802    18

Volg STARLINK-30866 in realtime met AllMySat

Download on the App Store